VSP1087 SBCG-SBCY

Flight info

Callsign VSP1087
Flight time 0h 53m
Altitude 32000
Route KOXAL UZ63 TOSAR/N0471F330
Aircraft B738/M-SDE2E3FGHIRWXY/LB1

Departure

Time 2026-05-07 03:06
Airport Campo Grande Airport (SBCG)

Arrival

Time 2026-05-07 03:59
Airport Várzea Grande–Marechal Rondon International Airport (SBCY)
Time Latitude Longitude Altitude Speed Heading
2026-05-07 02:50 -20.45790 -54.66855 1842 ft 0 kts 352°
2026-05-07 02:53 -20.45791 -54.66855 1842 ft 1 kts 352°
2026-05-07 02:53 -20.45806 -54.66853 1842 ft 2 kts 351°
2026-05-07 02:54 -20.45821 -54.66850 1842 ft 2 kts 351°
2026-05-07 02:54 -20.45831 -54.66849 1842 ft 1 kts 338°
2026-05-07 02:54 -20.45841 -54.66837 1842 ft 2 kts 284°
2026-05-07 02:54 -20.45841 -54.66827 1842 ft 0 kts 257°
2026-05-07 02:55 -20.45840 -54.66823 1842 ft 0 kts 263°
2026-05-07 02:56 -20.45841 -54.66827 1842 ft 1 kts 265°
2026-05-07 02:56 -20.45843 -54.66850 1842 ft 4 kts 265°
2026-05-07 02:56 -20.45847 -54.66895 1842 ft 7 kts 263°
2026-05-07 02:57 -20.45854 -54.66959 1842 ft 10 kts 263°
2026-05-07 02:57 -20.45862 -54.67041 1842 ft 10 kts 263°
2026-05-07 02:57 -20.45875 -54.67116 1842 ft 9 kts 240°
2026-05-07 02:57 -20.45929 -54.67143 1842 ft 8 kts 181°
2026-05-07 02:58 -20.45988 -54.67139 1842 ft 8 kts 174°
2026-05-07 02:58 -20.46045 -54.67133 1842 ft 7 kts 174°
2026-05-07 02:58 -20.46100 -54.67126 1842 ft 8 kts 173°
2026-05-07 02:58 -20.46167 -54.67118 1842 ft 10 kts 173°
2026-05-07 02:59 -20.46243 -54.67109 1842 ft 11 kts 173°
2026-05-07 02:59 -20.46320 -54.67099 1842 ft 11 kts 175°
2026-05-07 02:59 -20.46401 -54.67104 1842 ft 12 kts 194°
2026-05-07 02:59 -20.46476 -54.67150 1842 ft 13 kts 220°
2026-05-07 03:00 -20.46546 -54.67217 1842 ft 14 kts 222°
2026-05-07 03:00 -20.46623 -54.67292 1842 ft 15 kts 222°
2026-05-07 03:00 -20.46706 -54.67372 1842 ft 16 kts 222°
2026-05-07 03:00 -20.46792 -54.67454 1842 ft 16 kts 221°
2026-05-07 03:01 -20.46877 -54.67536 1842 ft 16 kts 222°
2026-05-07 03:01 -20.46960 -54.67617 1842 ft 16 kts 222°
2026-05-07 03:01 -20.47043 -54.67696 1842 ft 16 kts 222°
2026-05-07 03:01 -20.47126 -54.67777 1842 ft 16 kts 222°
2026-05-07 03:02 -20.47209 -54.67858 1842 ft 16 kts 223°
2026-05-07 03:02 -20.47293 -54.67938 1842 ft 16 kts 222°
2026-05-07 03:02 -20.47378 -54.68019 1842 ft 16 kts 222°
2026-05-07 03:02 -20.47461 -54.68101 1842 ft 16 kts 222°
2026-05-07 03:03 -20.47545 -54.68180 1842 ft 16 kts 222°
2026-05-07 03:03 -20.47626 -54.68259 1842 ft 14 kts 222°
2026-05-07 03:03 -20.47692 -54.68323 1842 ft 9 kts 221°
2026-05-07 03:03 -20.47743 -54.68350 1842 ft 7 kts 174°
2026-05-07 03:04 -20.47781 -54.68324 1842 ft 6 kts 135°
2026-05-07 03:04 -20.47808 -54.68293 1842 ft 5 kts 133°
2026-05-07 03:04 -20.47833 -54.68263 1842 ft 5 kts 130°
2026-05-07 03:04 -20.47848 -54.68237 1842 ft 3 kts 100°
2026-05-07 03:05 -20.47844 -54.68214 1842 ft 4 kts 65°
2026-05-07 03:05 -20.47820 -54.68186 1842 ft 6 kts 43°
2026-05-07 03:05 -20.47759 -54.68126 1842 ft 28 kts 42°
2026-05-07 03:05 -20.47390 -54.67769 1843 ft 110 kts 43°
2026-05-07 03:06 -20.46675 -54.67079 1851 ft 166 kts 42°
2026-05-07 03:06 -20.45754 -54.66175 2221 ft 186 kts 44°
2026-05-07 03:06 -20.44764 -54.65180 2643 ft 204 kts 42°
2026-05-07 03:06 -20.43683 -54.64180 3265 ft 214 kts 40°
2026-05-07 03:07 -20.42507 -54.63097 3767 ft 228 kts 41°
2026-05-07 03:07 -20.41314 -54.61964 4276 ft 237 kts 41°
2026-05-07 03:07 -20.40071 -54.60765 4791 ft 246 kts 42°
2026-05-07 03:07 -20.38679 -54.59567 5296 ft 262 kts 27°
2026-05-07 03:08 -20.36907 -54.59197 5777 ft 268 kts 354°
2026-05-07 03:08 -20.35194 -54.59970 6281 ft 275 kts 321°
2026-05-07 03:08 -20.34120 -54.61666 6790 ft 282 kts 291°
2026-05-07 03:08 -20.33680 -54.63721 7317 ft 286 kts 281°
2026-05-07 03:09 -20.33368 -54.65811 7871 ft 286 kts 284°
2026-05-07 03:09 -20.32807 -54.67815 8490 ft 285 kts 296°
2026-05-07 03:09 -20.31810 -54.69649 9123 ft 285 kts 309°
2026-05-07 03:09 -20.30544 -54.71281 9754 ft 286 kts 314°
2026-05-07 03:10 -20.29193 -54.72837 10379 ft 287 kts 315°
2026-05-07 03:10 -20.27791 -54.74435 10539 ft 314 kts 314°
2026-05-07 03:10 -20.26335 -54.76346 10412 ft 343 kts 309°
2026-05-07 03:10 -20.24876 -54.78413 10412 ft 350 kts 308°
2026-05-07 03:11 -20.23432 -54.80483 10415 ft 351 kts 308°
2026-05-07 03:11 -20.21917 -54.82533 10416 ft 349 kts 314°
2026-05-07 03:11 -20.20165 -54.84347 10435 ft 350 kts 322°
2026-05-07 03:11 -20.18169 -54.85876 11153 ft 354 kts 330°
2026-05-07 03:12 -20.16009 -54.87074 12054 ft 354 kts 337°
2026-05-07 03:12 -20.13726 -54.88016 12934 ft 354 kts 341°
2026-05-07 03:12 -20.11369 -54.88843 13763 ft 357 kts 343°
2026-05-07 03:12 -20.10144 -54.89252 14181 ft 359 kts 343°
2026-05-07 03:13 -20.07758 -54.90034 14990 ft 362 kts 343°
2026-05-07 03:13 -20.05309 -54.90831 15800 ft 365 kts 343°
2026-05-07 03:13 -20.02893 -54.91616 16562 ft 368 kts 343°
2026-05-07 03:13 -20.00432 -54.92415 17318 ft 371 kts 342°
2026-05-07 03:14 -19.97945 -54.93223 18032 ft 374 kts 342°
2026-05-07 03:14 -19.95453 -54.94033 18722 ft 378 kts 342°
2026-05-07 03:14 -19.90389 -54.95675 20083 ft 384 kts 342°
2026-05-07 03:15 -19.87760 -54.96351 20714 ft 388 kts 348°
2026-05-07 03:15 -19.85108 -54.96814 21291 ft 391 kts 350°
2026-05-07 03:15 -19.82389 -54.97189 21837 ft 395 kts 351°
2026-05-07 03:15 -19.79665 -54.97514 22389 ft 397 kts 352°
2026-05-07 03:16 -19.76910 -54.97818 22902 ft 400 kts 352°
2026-05-07 03:16 -19.74099 -54.98112 23418 ft 403 kts 352°
2026-05-07 03:16 -19.71280 -54.98397 23894 ft 407 kts 352°
2026-05-07 03:16 -19.68464 -54.98676 24371 ft 410 kts 352°
2026-05-07 03:17 -19.65599 -54.98956 24828 ft 413 kts 352°
2026-05-07 03:17 -19.62733 -54.99232 25302 ft 415 kts 352°
2026-05-07 03:17 -19.59833 -54.99508 25723 ft 418 kts 352°
2026-05-07 03:17 -19.56926 -54.99784 26162 ft 421 kts 351°
2026-05-07 03:18 -19.54014 -55.00061 26569 ft 424 kts 351°
2026-05-07 03:18 -19.51039 -55.00345 26950 ft 427 kts 351°
2026-05-07 03:18 -19.48064 -55.00626 27347 ft 429 kts 351°
2026-05-07 03:18 -19.45091 -55.00907 27733 ft 432 kts 351°
2026-05-07 03:19 -19.42077 -55.01192 28118 ft 434 kts 351°
2026-05-07 03:19 -19.39070 -55.01476 28452 ft 437 kts 351°
2026-05-07 03:19 -19.36038 -55.01880 28895 ft 436 kts 346°
2026-05-07 03:19 -19.33061 -55.02488 29390 ft 433 kts 344°
2026-05-07 03:20 -19.30130 -55.03184 29867 ft 431 kts 342°
2026-05-07 03:20 -19.27220 -55.03996 30365 ft 429 kts 340°
2026-05-07 03:20 -19.24364 -55.04832 30800 ft 428 kts 340°
2026-05-07 03:20 -19.21462 -55.05692 31262 ft 427 kts 339°
2026-05-07 03:21 -19.18599 -55.06546 31719 ft 425 kts 339°
2026-05-07 03:21 -19.15751 -55.07397 32173 ft 424 kts 339°
2026-05-07 03:21 -19.12949 -55.08237 32575 ft 423 kts 339°
2026-05-07 03:21 -19.10098 -55.09092 32973 ft 422 kts 339°
2026-05-07 03:22 -19.07265 -55.09943 33053 ft 424 kts 339°
2026-05-07 03:22 -19.01518 -55.11678 33050 ft 433 kts 339°
2026-05-07 03:23 -18.95648 -55.13445 33045 ft 439 kts 340°
2026-05-07 03:23 -18.89769 -55.15213 33045 ft 441 kts 340°
2026-05-07 03:24 -18.83812 -55.17005 33047 ft 443 kts 341°
2026-05-07 03:24 -18.77862 -55.18795 33047 ft 443 kts 341°
2026-05-07 03:25 -18.71944 -55.20573 33047 ft 442 kts 341°
2026-05-07 03:25 -18.66005 -55.22358 33047 ft 442 kts 341°
2026-05-07 03:26 -18.60079 -55.24136 33047 ft 442 kts 341°
2026-05-07 03:26 -18.54140 -55.25917 33047 ft 442 kts 341°
2026-05-07 03:27 -18.48175 -55.27705 33047 ft 442 kts 341°
2026-05-07 03:27 -18.42250 -55.29480 33047 ft 442 kts 341°
2026-05-07 03:28 -18.36350 -55.31245 33047 ft 442 kts 341°
2026-05-07 03:28 -18.30367 -55.33035 33047 ft 442 kts 341°
2026-05-07 03:29 -18.24470 -55.34797 33046 ft 442 kts 341°
2026-05-07 03:29 -18.18514 -55.36575 33047 ft 442 kts 341°
2026-05-07 03:30 -18.12583 -55.38346 33047 ft 443 kts 341°
2026-05-07 03:30 -18.06643 -55.40117 33046 ft 442 kts 341°
2026-05-07 03:31 -18.00703 -55.41887 33027 ft 442 kts 341°
2026-05-07 03:31 -17.94760 -55.43657 33007 ft 442 kts 341°
2026-05-07 03:32 -17.88857 -55.45413 32993 ft 442 kts 341°
2026-05-07 03:32 -17.82920 -55.47177 32993 ft 442 kts 341°
2026-05-07 03:33 -17.76977 -55.48930 32993 ft 442 kts 341°
2026-05-07 03:33 -17.71050 -55.50682 32992 ft 442 kts 341°
2026-05-07 03:34 -17.65097 -55.52444 32993 ft 442 kts 341°
2026-05-07 03:34 -17.59178 -55.54201 32993 ft 442 kts 341°
2026-05-07 03:35 -17.53280 -55.55955 32993 ft 442 kts 341°
2026-05-07 03:35 -17.47334 -55.57723 32993 ft 443 kts 341°
2026-05-07 03:36 -17.41415 -55.59482 32993 ft 442 kts 341°
2026-05-07 03:36 -17.35437 -55.61258 32784 ft 444 kts 341°
2026-05-07 03:36 -17.32485 -55.62133 32136 ft 439 kts 341°
2026-05-07 03:37 -17.29556 -55.63002 31237 ft 438 kts 341°
2026-05-07 03:37 -17.26668 -55.63858 30574 ft 431 kts 341°
2026-05-07 03:37 -17.23818 -55.64703 29884 ft 425 kts 341°
2026-05-07 03:37 -17.20979 -55.65544 29279 ft 417 kts 342°
2026-05-07 03:38 -17.18242 -55.66355 28705 ft 410 kts 342°
2026-05-07 03:38 -17.15496 -55.67168 28128 ft 403 kts 342°
2026-05-07 03:38 -17.12797 -55.67967 27560 ft 396 kts 342°
2026-05-07 03:38 -17.10150 -55.68751 27001 ft 390 kts 342°
2026-05-07 03:39 -17.07546 -55.69523 26448 ft 387 kts 342°
2026-05-07 03:39 -17.04910 -55.70305 25897 ft 399 kts 343°
2026-05-07 03:39 -17.02215 -55.71103 25299 ft 398 kts 343°
2026-05-07 03:39 -16.99584 -55.71881 24729 ft 390 kts 343°
2026-05-07 03:40 -16.97006 -55.72643 24174 ft 383 kts 344°
2026-05-07 03:40 -16.94449 -55.73399 23619 ft 377 kts 344°
2026-05-07 03:40 -16.91959 -55.74135 23075 ft 371 kts 344°
2026-05-07 03:40 -16.89465 -55.74872 22528 ft 365 kts 345°
2026-05-07 03:41 -16.87057 -55.75583 22007 ft 369 kts 345°
2026-05-07 03:41 -16.84512 -55.76334 21447 ft 379 kts 345°
2026-05-07 03:41 -16.81993 -55.77078 20873 ft 373 kts 345°
2026-05-07 03:41 -16.79543 -55.77802 20329 ft 367 kts 345°
2026-05-07 03:42 -16.77107 -55.78521 19723 ft 363 kts 345°
2026-05-07 03:42 -16.74653 -55.79244 18729 ft 369 kts 346°
2026-05-07 03:42 -16.72153 -55.79980 17650 ft 376 kts 346°
2026-05-07 03:42 -16.69672 -55.80711 16585 ft 367 kts 346°
2026-05-07 03:43 -16.67262 -55.81422 15772 ft 353 kts 346°
2026-05-07 03:43 -16.64957 -55.82102 15183 ft 340 kts 346°
2026-05-07 03:43 -16.62688 -55.82769 14651 ft 337 kts 346°
2026-05-07 03:43 -16.60447 -55.83427 14126 ft 334 kts 346°
2026-05-07 03:44 -16.58200 -55.84088 13611 ft 340 kts 347°
2026-05-07 03:44 -16.55889 -55.84765 13069 ft 348 kts 346°
2026-05-07 03:44 -16.53569 -55.85448 12517 ft 344 kts 346°
2026-05-07 03:44 -16.51260 -55.86057 11984 ft 339 kts 350°
2026-05-07 03:45 -16.48968 -55.86549 11453 ft 336 kts 351°
2026-05-07 03:45 -16.46691 -55.87020 11074 ft 321 kts 351°
2026-05-07 03:45 -16.44590 -55.87459 10959 ft 295 kts 351°
2026-05-07 03:45 -16.42639 -55.87869 10808 ft 277 kts 351°
2026-05-07 03:46 -16.40775 -55.88261 10613 ft 272 kts 351°
2026-05-07 03:46 -16.38933 -55.88648 10408 ft 267 kts 351°
2026-05-07 03:46 -16.37128 -55.89029 10210 ft 262 kts 351°
2026-05-07 03:46 -16.35336 -55.89408 10021 ft 267 kts 351°
2026-05-07 03:47 -16.33459 -55.89802 9725 ft 278 kts 351°
2026-05-07 03:47 -16.31582 -55.90200 9348 ft 278 kts 351°
2026-05-07 03:47 -16.29677 -55.90604 9003 ft 277 kts 351°
2026-05-07 03:47 -16.27785 -55.91005 8662 ft 276 kts 351°
2026-05-07 03:48 -16.25900 -55.91404 8321 ft 275 kts 351°
2026-05-07 03:48 -16.24037 -55.91799 7985 ft 274 kts 350°
2026-05-07 03:48 -16.22174 -55.92193 7647 ft 273 kts 350°
2026-05-07 03:48 -16.20327 -55.92584 7482 ft 266 kts 350°
2026-05-07 03:49 -16.18509 -55.92968 7499 ft 266 kts 350°
2026-05-07 03:49 -16.16687 -55.93352 7494 ft 268 kts 350°
2026-05-07 03:49 -16.14830 -55.93744 7492 ft 268 kts 350°
2026-05-07 03:49 -16.13009 -55.94129 7493 ft 268 kts 350°
2026-05-07 03:50 -16.11192 -55.94513 7493 ft 268 kts 350°
2026-05-07 03:50 -16.09357 -55.94901 7492 ft 268 kts 350°
2026-05-07 03:50 -16.07543 -55.95285 7389 ft 260 kts 350°
2026-05-07 03:50 -16.05774 -55.95659 7131 ft 258 kts 350°
2026-05-07 03:51 -16.04030 -55.96027 6825 ft 258 kts 350°
2026-05-07 03:51 -16.02257 -55.96401 6504 ft 258 kts 350°
2026-05-07 03:51 -16.00501 -55.96771 6185 ft 258 kts 350°
2026-05-07 03:51 -15.98742 -55.97142 5864 ft 258 kts 350°
2026-05-07 03:52 -15.96989 -55.97512 5542 ft 259 kts 350°
2026-05-07 03:52 -15.95194 -55.97891 5213 ft 258 kts 350°
2026-05-07 03:52 -15.93436 -55.98262 4914 ft 255 kts 350°
2026-05-07 03:52 -15.91738 -55.98600 4571 ft 245 kts 352°
2026-05-07 03:53 -15.90113 -55.98890 4283 ft 231 kts 352°
2026-05-07 03:53 -15.88572 -55.99210 3981 ft 220 kts 343°
2026-05-07 03:53 -15.87209 -55.99855 3791 ft 207 kts 333°
2026-05-07 03:53 -15.86009 -56.00554 3606 ft 193 kts 332°
2026-05-07 03:54 -15.84843 -56.01218 3351 ft 182 kts 333°
2026-05-07 03:54 -15.83762 -56.01816 3130 ft 172 kts 334°
2026-05-07 03:54 -15.82720 -56.02381 2926 ft 164 kts 334°
2026-05-07 03:54 -15.81724 -56.02917 2708 ft 157 kts 334°
2026-05-07 03:55 -15.80766 -56.03429 2596 ft 151 kts 334°
2026-05-07 03:55 -15.79856 -56.03915 2608 ft 147 kts 334°
2026-05-07 03:55 -15.78937 -56.04404 2587 ft 145 kts 334°
2026-05-07 03:55 -15.78032 -56.04886 2597 ft 144 kts 335°
2026-05-07 03:56 -15.77135 -56.05363 2590 ft 144 kts 335°
2026-05-07 03:56 -15.76237 -56.05841 2593 ft 144 kts 335°
2026-05-07 03:56 -15.75342 -56.06317 2591 ft 144 kts 335°
2026-05-07 03:56 -15.74440 -56.06797 2467 ft 147 kts 334°
2026-05-07 03:57 -15.73553 -56.07270 2252 ft 143 kts 334°
2026-05-07 03:57 -15.72659 -56.07746 2050 ft 142 kts 334°
2026-05-07 03:57 -15.71785 -56.08211 1853 ft 140 kts 334°
2026-05-07 03:57 -15.70914 -56.08675 1665 ft 140 kts 334°
2026-05-07 03:58 -15.70044 -56.09138 1476 ft 140 kts 334°
2026-05-07 03:58 -15.69178 -56.09599 1288 ft 140 kts 334°
2026-05-07 03:58 -15.68322 -56.10055 1102 ft 140 kts 334°
2026-05-07 03:58 -15.67452 -56.10521 914 ft 140 kts 334°
2026-05-07 03:59 -15.66588 -56.10975 745 ft 138 kts 335°
2026-05-07 03:59 -15.65728 -56.11433 608 ft 137 kts 333°
2026-05-07 03:59 -15.65144 -56.11748 613 ft 47 kts 334°
2026-05-07 03:59 -15.64960 -56.11845 617 ft 27 kts 333°
2026-05-07 04:00 -15.64822 -56.11912 621 ft 12 kts 345°
2026-05-07 04:00 -15.64780 -56.11937 622 ft 3 kts 272°
2026-05-07 04:00 -15.64794 -56.11950 622 ft 3 kts 182°
2026-05-07 04:00 -15.64823 -56.11931 621 ft 6 kts 141°
2026-05-07 04:01 -15.64873 -56.11894 620 ft 10 kts 150°
2026-05-07 04:01 -15.64936 -56.11860 618 ft 10 kts 153°
2026-05-07 04:01 -15.65000 -56.11826 616 ft 8 kts 152°
2026-05-07 04:01 -15.65051 -56.11815 616 ft 5 kts 206°
2026-05-07 04:02 -15.65071 -56.11843 616 ft 5 kts 238°
2026-05-07 04:02 -15.65081 -56.11865 617 ft 2 kts 245°
2026-05-07 04:02 -15.65087 -56.11880 617 ft 2 kts 255°
2026-05-07 04:02 -15.65086 -56.11893 617 ft 1 kts 284°
2026-05-07 04:03 -15.65075 -56.11910 618 ft 3 kts 318°
2026-05-07 04:03 -15.65051 -56.11926 618 ft 2 kts 330°
2026-05-07 04:03 -15.65041 -56.11932 618 ft 1 kts 331°
2026-05-07 04:03 -15.65034 -56.11936 618 ft 1 kts 331°
2026-05-07 04:04 -15.65021 -56.11943 618 ft 2 kts 332°
2026-05-07 04:04 -15.65011 -56.11953 619 ft 2 kts 294°
2026-05-07 04:04 -15.65010 -56.11969 619 ft 2 kts 262°
2026-05-07 04:04 -15.65013 -56.11979 619 ft 0 kts 255°
2026-05-07 04:05 -15.65013 -56.11982 619 ft 0 kts 258°
2026-05-07 04:05 -15.65014 -56.11985 619 ft 0 kts 250°
2026-05-07 04:05 -15.65015 -56.11986 619 ft 0 kts 246°
2026-05-07 04:05 -15.65017 -56.11991 619 ft 0 kts 247°
2026-05-07 04:06 -15.65019 -56.11995 619 ft 0 kts 246°
2026-05-07 04:06 -15.65020 -56.11997 620 ft 0 kts 244°
2026-05-07 04:06 -15.65020 -56.11998 620 ft 0 kts 244°